Regional Weather Roundup
Issued by NWS

Home | Current Version | Previous Version | Text Only | Print | Product List | Glossary Off
Versions: 1 2 3 4 5 6 7 8 9 10 11 12 13 14 15 16 17 18 19 20 21 22 23 24 25 26 27 28 29 30 31 32 33 34 35 36 37 38 39 40 41 42 43 44 45 46 47 48 49 50

000
ASUS45 KABQ 302210
RWRNM
NEW MEXICO REGIONAL WEATHER ROUNDUP
NATIONAL WEATHER SERVICE ALBUQUERQUE NM
400 PM MDT SAT JUL 30 2016

NOTE: "FAIR" MEANS FEW OR NO CLOUDS BELOW 12,000 FEET AGL WITH NO
       SIGNIFICANT WEATHER OR OBSTRUCTIONS TO VISION.

      THIS PRODUCT IS RELEASED AS TWO VERSIONS.  ONE VERSION NEAR
      THE TOP OF THE HOUR CONTAINING PRELIMINARY DATA FROM ALBUQUERQUE
      AND OTHER STATIONS.  A FINAL VERSION WITH ADDITIONAL DATA IS
      ISSUED ABOUT 10 MINUTES AFTER THE HOUR.

NMZ501-503-504-510>518-302300-
NORTHWEST PLATEAU/NORTHCENTRAL MOUNTAINS

CITY           SKY/WX    TMP DP  RH WIND       PRES   REMARKS
FARMINGTON     FAIR      94  37  13 SW8G20    30.00F
LOS ALAMOS     PTSUNNY   80  40  23 SW9G17    30.19F
SANTA FE       FAIR      88  41  19 W12       30.11F
TAOS           FAIR      82  37  20 N6        30.17F
ANGEL FIRE     CLOUDY    73  43  33 SE16G23   30.28S

$$
NMZ402-403-502-505>509-302300-
WESTCENTRAL MOUNTAINS/SOUTHWEST MOUNTAINS

CITY           SKY/WX    TMP DP  RH WIND       PRES   REMARKS
GALLUP         PTSUNNY   91  39  16 NW10      30.10F
GRANTS         FAIR      83  35  17 SW17      30.15F
SILVER CITY    DRIZZLE   75  55  51 NW16G23   30.12F

$$
NMZ407-409-411-412-302300-
SOUTHERN DESERTS

CITY           SKY/WX    TMP DP  RH WIND       PRES   REMARKS
LORDSBURG      FAIR      86  54  32 N22G31    30.01S
DEMING         FAIR      92  51  24 MISG      30.01F
LAS CRUCES     FAIR      92  47  21 CALM      30.03F
HOLLOMAN AFB   FAIR      95  50  21 SW6       29.97F
ALAMOGORDO     FAIR      93  48  21 CALM      30.01F
T OR C         FAIR      91  51  25 VRB5      30.02F

$$
NMZ519>523-302300-
CENTRAL VALLEYS/CENTRAL HIGHLANDS

CITY           SKY/WX    TMP DP  RH WIND       PRES   REMARKS
ALBUQUERQUE    PTSUNNY   92  42  17 W9        30.04F
DOUBLE EAGLE   PTSUNNY   90  46  22 S12       30.08F
MORIARTY ARPT  FAIR      90  45  21 SW16G23   30.12F
CLINES CORNERS FAIR      85  45  24 W8G17     30.19F
BELEN          FAIR      94  40  15 S5        30.02F
SOCORRO        FAIR      96  44  17 S9        30.01F

$$
NMZ524>526-539-540-302300-
SOUTHCENTRAL MOUNTAINS

CITY           SKY/WX    TMP DP  RH WIND       PRES   REMARKS
RUIDOSO          N/A     79  46  31 S9        30.24F

$$
NMZ527>531-302300-
NORTHEAST HIGHLANDS/NORTHEAST PLAINS

CITY           SKY/WX    TMP DP  RH WIND       PRES   REMARKS
LAS VEGAS      FAIR      81  45  28 S14       30.17F
RATON          FAIR      86  49  27 E8        30.07F
CLAYTON        FAIR      92  54  27 S20G29    30.01F

$$
NMZ532>537-302300-
EASTCENTRAL PLAINS

CITY           SKY/WX    TMP DP  RH WIND       PRES   REMARKS
TUCUMCARI      FAIR      97  50  20 SW13G23   29.96F
CANNON AFB     FAIR      92  54  27 S13G23    30.02F
CLOVIS AIRPORT FAIR      91  57  31 S16       30.03F

$$
NMZ028-029-538-302300-
SOUTHEAST PLAINS

CITY           SKY/WX    TMP DP  RH WIND       PRES   REMARKS
ROSWELL        FAIR      97  54  23 SE18G24   29.97F HX  95
ARTESIA        FAIR      95  55  26 SE16G22   29.97F
CARLSBAD       PTSUNNY   95  55  26 S9G23     29.95F
HOBBS          MOSUNNY   93  50  22 SE13G20   30.01F


$$



USA.gov is the U.S. government's official web portal to all federal, state and local government web resources and services.